#timestamp,LO_Frequency,Hit,StdDev 
1692331215.4,286046991.3,N
1692331235.2,286046991.1,N
1692331255.0,286046988.3,N
1692331255.9,286046988.3,N
1692331275.8,286046988.4,N
1692331295.6,286046985.6,N
1692331315.4,286046986.5,N
1692331335.3,286046986.4,N
1692331355.1,286046984.1,N
1692331356.0,286046984.1,N
1692331375.8,286046986.8,N
1692331395.7,286046983.9,N
1692331415.5,286046986.7,N
1692331435.3,286046984.9,N
1692331455.2,286046985.2,N
1692331475.9,286046982.4,N
1692331495.7,286046982.4,N
1692331515.6,286046985.1,N
1692331535.4,286046985.2,N
1692331555.2,286046982.8,N
1692331575.1,286046983.4,N
1692331576.0,286046983.4,N
1692331595.8,286046982.4,Y
1692331615.6,286046995.6,P
1692331635.5,286046995.4,N
1692331655.3,286046996.0,N
1692331675.1,286046996.4,N
1692331695.9,286046995.2,N
1692331715.7,286046995.6,N
1692331735.5,286046995.1,N
1692331755.4,286046995.4,N
1692331775.2,286046995.5,N
1692331795.0,286046995.6,N
1692331795.9,286046995.6,N
1692331815.8,286046995.2,N
1692331835.6,286046998.0,N
1692331855.4,286046997.6,N
1692331875.3,286046998.0,N
1692331895.1,286046994.9,N
1692331915.8,286046997.6,N
1692331935.7,286046997.2,N
1692331955.5,286046997.1,N
1692331975.3,286046996.5,N
1692331995.2,286046999.4,N
1692332015.0,286046996.9,N
1692332015.9,286046996.9,N
1692332035.7,286046998.7,N
1692332055.6,286046999.5,N
1692332075.4,286046999.2,N
1692332095.2,286046999.3,N
1692332115.1,286046996.5,N
1692332116.0,286046996.5,N
1692332135.8,286046999.5,N
1692332155.7,286046998.5,N
1692332175.5,286047000.2,N
1692332195.3,286047001.0,N
1692332215.2,286047000.7,N
1692332235.9,286047000.5,N
1692332255.7,286047000.6,N
1692332275.6,286047000.6,N
1692332295.4,286046999.8,N
1692332315.2,286047000.6,N
1692332335.1,286046999.9,N
1692332336.0,286046999.9,N
1692332355.8,286047000.4,N
1692332375.6,286047001.1,N
1692332395.5,286046998.9,N
1692332415.3,286046998.1,N
1692332435.1,286046998.3,N
1692332455.9,286047000.8,N
1692332475.7,286047002.4,N
1692332495.5,286046999.8,N
1692332515.4,286047002.6,N
1692332535.2,286047000.5,N
1692332555.0,286047000.7,N
1692332555.9,286047000.7,N
1692332575.8,286047002.6,N
1692332595.6,286047001.8,N
1692332615.4,286047003.8,N
1692332635.3,286047003.1,N
1692332655.1,286047005.3,Y
1692332656.0,286047005.3,P
1692332675.8,286047005.5,N
1692332695.7,286047003.1,N
1692332715.5,286047001.9,N
1692332735.3,286047001.7,N
1692332755.2,286047002.0,N
1692332775.9,286047004.0,N
1692332795.7,286047001.8,N
1692332815.6,286047002.6,N
1692332835.4,286047003.9,N
1692332855.2,286047002.3,N
1692332875.1,286047003.4,N
1692332876.0,286047003.4,N
1692332895.8,286047002.6,N
1692332915.6,286047005.5,Y
1692332935.5,286046996.6,P
1692332955.3,286047000.7,N
1692332975.1,286046997.4,N
1692332995.9,286046998.1,N
1692333015.7,286047000.3,N
1692333035.5,286046997.9,N
1692333055.4,286046998.4,N
1692333075.2,286047000.6,N
1692333095.0,286047002.7,N
1692333095.9,286047002.7,N
1692333115.8,286047000.4,N
1692333135.6,286047000.9,N
1692333155.4,286047000.3,N
1692333175.3,286047001.2,N
1692333195.1,286046995.4,N
1692333215.8,286046999.2,N
1692333235.7,286047001.1,N
1692333255.5,286047000.0,N
1692333275.3,286047000.3,N
1692333295.2,286047000.6,N
1692333315.0,286047000.8,N
1692333315.9,286047000.8,N
1692333335.7,286047002.1,N
1692333355.6,286047002.3,N
1692333375.4,286047000.1,N
1692333395.2,286047000.9,N
1692333415.1,286047000.8,N
1692333416.0,286047000.8,N
1692333435.8,286047000.1,N
1692333455.6,286047000.6,N
1692333475.5,286047001.1,N
1692333495.3,286046998.9,N
1692333515.1,286046999.4,N
1692333535.9,286046998.5,N
1692333555.7,286047001.1,N
1692333575.5,286047001.0,N
1692333595.4,286047011.9,Y
1692333615.2,286046999.8,P
1692333635.0,286047002.8,P
1692333636.0,286047002.8,N
1692333655.8,286047000.4,N
1692333675.6,286047000.2,N
1692333695.5,286047000.1,N
1692333715.3,286047000.1,N
1692333735.1,286046999.7,N
1692333755.9,286047002.8,N
1692333775.7,286047002.7,N
1692333795.5,286047000.1,N
1692333815.4,286047000.4,N
1692333835.2,286047000.6,N
1692333855.0,286046996.9,N
1692333855.9,286046996.9,N
1692333875.8,286047001.0,N
1692333895.6,286046999.7,N
1692333915.4,286047002.8,N
1692333935.3,286047001.6,N
1692333955.1,286047002.7,N
1692333956.0,286047002.7,N
1692333975.8,286047002.3,N
1692333995.7,286047002.0,N
1692334015.5,286047002.5,N
1692334035.3,286047002.8,N
1692334055.2,286047002.4,N
1692334075.9,286047002.5,N
1692334095.7,286047000.0,N
1692334115.6,286047002.4,N
1692334135.4,286047000.5,N
1692334155.2,286047000.7,N
1692334175.1,286047000.3,N
1692334176.0,286047000.3,N
1692334195.8,286047001.0,N
1692334215.6,286046999.9,N
1692334235.5,286047000.0,N
1692334255.3,286046999.7,N
1692334275.1,286047002.4,N
1692334295.9,286047000.2,N
1692334315.7,286046999.9,N
1692334335.5,286047002.7,N
1692334355.4,286047000.0,N
1692334375.2,286047000.3,N
1692334395.0,286047001.0,N
1692334395.9,286047001.0,N
1692334415.8,286047000.9,N
1692334435.6,286047000.3,N
1692334455.4,286047001.2,N
1692334475.3,286047001.1,N
1692334495.1,286046998.2,N
1692334515.8,286047001.1,N
1692334535.7,286046998.8,N
1692334555.5,286046998.2,N
1692334575.3,286046998.2,N
1692334595.2,286046998.9,N
1692334615.0,286046999.4,N
1692334615.9,286046999.4,N
1692334635.7,286047028.6,Y
1692334655.6,286047013.4,P
1692334675.4,286047006.3,N
1692334695.2,286047002.0,N
1692334715.1,286047000.9,N
1692334716.0,286047000.9,N
1692334735.8,286046996.7,N
1692334755.6,286046997.8,N
1692334775.5,286046995.2,N
1692334795.3,286046993.8,N
